Centerville, IA

3:51 AM CDT on May 30, 2017 (GMT -0500)
Centerville Municipal

Weather History for KTVK - June, 2014

Change the Weather History Date:

Wednesday, June 4, 2014

  Actual Average Record
Temperature  
Mean Temperature 70 °F -  
Max Temperature 77 °F 77 °F 92 °F (1960)
Min Temperature 62 °F 56 °F 41 °F (1950)
Cooling Degree Days 4    
Growing Degree Days 20 (Base 50)    
Moisture  
Dew Point 65 °F    
Average Humidity 88    
Maximum Humidity 100    
Minimum Humidity 69    
Precipitation  
Precipitation 0.00 in - - ()
Sea Level Pressure  
Sea Level Pressure 29.83 in    
Wind  
Wind Speed 10 mph (North)    
Max Wind Speed 23 mph    
Max Gust Speed 28 mph    
Visibility 10 miles    
Events Rain    
Averages and records for this station are not official NWS values.
T = Trace of Precipitation, MM = Missing Value Source: NWS Daily Summary

Daily Weather History Graph

Daily Weather History Graph

Search for Another Location

Airport or City:

Trip Planner

Search our weather history database for the weather conditions in past years. The results will help you decide how hot, cold, wet, or windy it might be!

Date:

Astronomy

Jun. 04, 2014 Rise Set
Actual Time 5:41 AM CDT 8:38 PM CDT
Civil Twilight 5:08 AM CDT 9:11 PM CDT
Nautical Twilight 4:27 AM CDT 9:53 PM CDT
Astronomical Twilight 3:38 AM CDT 10:41 PM CDT
Moon 12:02 PM CDT (6/4) 12:36 AM CDT (6/4)
Length of Visible Light 16h 02m
Length of Day
14h 57m
Waxing Crescent, 39% of the Moon is Illuminated
Jun 4
Waxing Crescent
Jun 5
First Quarter
Jun 12
Full
Jun 19
Last Quarter
Jun 27
New

Hourly Weather History & Observations

Time (CDT) Temp. Dew Point Humidity Pressure Visibility Wind Dir Wind Speed Gust Speed Precip Events Conditions
12:15 AM 64.4 °F 64.4 °F 100% 29.86 in 10.0 mi ENE 11.5 mph 23.0 mph N/A Rain Rain
12:35 AM 64.4 °F 64.4 °F 100% 29.91 in 7.0 mi NNE 9.2 mph - N/A Rain Heavy Rain
12:55 AM 64.4 °F 64.4 °F 100% 29.87 in 8.0 mi ENE 13.8 mph - N/A Rain Rain
1:15 AM 64.4 °F 64.4 °F 100% 29.81 in 10.0 mi East 15.0 mph - N/A Rain Light Rain
1:35 AM 64.4 °F 64.4 °F 100% 29.78 in 10.0 mi East 18.4 mph 26.5 mph N/A Rain Light Rain
1:55 AM 64.4 °F 64.4 °F 100% 29.78 in 10.0 mi East 13.8 mph 26.5 mph N/A Rain Light Rain
2:15 AM 64.4 °F 64.4 °F 100% 29.84 in 10.0 mi NE 8.1 mph - N/A Rain Rain
2:35 AM 64.4 °F 64.4 °F 100% 29.90 in 10.0 mi WSW 4.6 mph - N/A Rain Light Rain
2:55 AM 64.4 °F 64.4 °F 100% 29.89 in 10.0 mi SW 4.6 mph - N/A Rain Light Rain
3:15 AM 64.4 °F 64.4 °F 100% 29.86 in 10.0 mi South 3.5 mph - N/A Rain Light Rain
3:35 AM 62.6 °F 62.6 °F 100% 29.86 in 10.0 mi SW 4.6 mph - N/A Rain Light Rain
4:15 AM 62.6 °F 62.6 °F 100% 29.66 in 10.0 mi SE 18.4 mph - N/A Rain Light Rain
4:35 AM 62.6 °F 62.6 °F 100% 29.62 in 10.0 mi SE 19.6 mph 23.0 mph N/A   Unknown
4:55 AM 62.6 °F 62.6 °F 100% 29.65 in 10.0 mi SE 12.7 mph 21.9 mph N/A   Unknown
5:15 AM 62.6 °F 62.6 °F 100% 29.67 in 10.0 mi SSE 10.4 mph - N/A   Unknown
5:35 AM 62.6 °F 62.6 °F 100% 29.68 in 10.0 mi SSE 9.2 mph - N/A   Unknown
5:55 AM 62.6 °F 62.6 °F 100% 29.69 in 10.0 mi South 8.1 mph - N/A   Unknown
6:15 AM 62.6 °F 62.6 °F 100% 29.77 in 10.0 mi NW 23.0 mph 27.6 mph N/A   Unknown
6:35 AM 64.4 °F 64.4 °F 100% 29.80 in 10.0 mi NW 11.5 mph - N/A   Unknown
6:55 AM 64.4 °F 64.4 °F 100% 29.81 in 10.0 mi NW 8.1 mph - N/A   Unknown
7:15 AM 64.4 °F 64.4 °F 100% 29.80 in 10.0 mi North 9.2 mph - N/A   Unknown
7:35 AM 66.2 °F 64.4 °F 94% 29.81 in 10.0 mi North 11.5 mph - N/A   Unknown
7:55 AM 66.2 °F 64.4 °F 94% 29.82 in 10.0 mi North 9.2 mph - N/A   Unknown
8:15 AM 66.2 °F 64.4 °F 94% 29.84 in 10.0 mi NNW 6.9 mph - N/A   Unknown
8:35 AM 66.2 °F 64.4 °F 94% 29.84 in 10.0 mi NNW 6.9 mph - N/A   Unknown
8:55 AM 68.0 °F 66.2 °F 94% 29.85 in 10.0 mi NNW 4.6 mph - N/A   Unknown
9:15 AM 68.0 °F 64.4 °F 88% 29.85 in 10.0 mi WNW 5.8 mph - N/A   Unknown
9:35 AM 69.8 °F 64.4 °F 83% 29.85 in 10.0 mi West 5.8 mph - N/A   Partly Cloudy
9:55 AM 69.8 °F 64.4 °F 83% 29.85 in 10.0 mi WSW 4.6 mph - N/A   Scattered Clouds
10:15 AM 69.8 °F 66.2 °F 88% 29.85 in 10.0 mi WSW 4.6 mph - N/A   Partly Cloudy
10:35 AM 71.6 °F 66.2 °F 83% 29.85 in 10.0 mi WSW 6.9 mph - N/A   Clear
10:55 AM 71.6 °F 64.4 °F 78% 29.85 in 10.0 mi WSW 5.8 mph - N/A   Scattered Clouds
11:15 AM 71.6 °F 66.2 °F 83% 29.85 in 10.0 mi WSW 5.8 mph - N/A   Scattered Clouds
11:35 AM 71.6 °F 66.2 °F 83% 29.85 in 10.0 mi WNW 6.9 mph - N/A   Partly Cloudy
11:55 AM 71.6 °F 66.2 °F 83% 29.84 in 10.0 mi NW 9.2 mph - N/A   Clear
12:15 PM 73.4 °F 66.2 °F 78% 29.84 in 10.0 mi NW 8.1 mph - N/A   Partly Cloudy
12:35 PM 73.4 °F 66.2 °F 78% 29.83 in 10.0 mi WNW 8.1 mph - N/A   Partly Cloudy
12:55 PM 73.4 °F 68.0 °F 83% 29.84 in 10.0 mi WNW 6.9 mph - N/A   Clear
1:15 PM 75.2 °F 68.0 °F 78% 29.84 in 10.0 mi NW 5.8 mph - N/A   Clear
1:35 PM 75.2 °F 68.0 °F 78% 29.84 in 10.0 mi NW 6.9 mph - N/A   Clear
1:55 PM 75.2 °F 66.2 °F 73% 29.84 in 10.0 mi NW 6.9 mph - N/A   Clear
2:15 PM 75.2 °F 66.2 °F 73% 29.84 in 10.0 mi NW 5.8 mph - N/A   Clear
2:35 PM 77.0 °F 66.2 °F 69% 29.84 in 10.0 mi NNW 5.8 mph - N/A   Clear
2:55 PM 77.0 °F 66.2 °F 69% 29.84 in 10.0 mi NW 8.1 mph - N/A   Clear
3:35 PM 77.0 °F 66.2 °F 69% 29.84 in 10.0 mi North 8.1 mph - N/A   Scattered Clouds
4:15 PM 77.0 °F 68.0 °F 74% 29.84 in 10.0 mi North 9.2 mph - N/A   Scattered Clouds
4:35 PM 77.0 °F 66.2 °F 69% 29.84 in 10.0 mi NNW 10.4 mph - N/A   Partly Cloudy
4:55 PM 77.0 °F 66.2 °F 69% 29.84 in 10.0 mi North 9.2 mph - N/A   Partly Cloudy
5:15 PM 77.0 °F 66.2 °F 69% 29.84 in 10.0 mi North 6.9 mph - N/A   Clear
5:35 PM 77.0 °F 66.2 °F 69% 29.84 in 10.0 mi North 6.9 mph - N/A   Partly Cloudy
5:55 PM 77.0 °F 66.2 °F 69% 29.84 in 10.0 mi NE 8.1 mph - N/A   Scattered Clouds
6:15 PM 75.2 °F 66.2 °F 73% 29.84 in 10.0 mi NE 10.4 mph - N/A   Mostly Cloudy
6:35 PM 73.4 °F 68.0 °F 83% 29.84 in 10.0 mi ENE 9.2 mph - N/A   Mostly Cloudy
6:55 PM 73.4 °F 68.0 °F 83% 29.85 in 10.0 mi ENE 8.1 mph - N/A   Mostly Cloudy
7:15 PM 73.4 °F 66.2 °F 78% 29.85 in 10.0 mi ENE 9.2 mph - N/A   Partly Cloudy
7:35 PM 73.4 °F 66.2 °F 78% 29.86 in 10.0 mi NE 8.1 mph - N/A   Scattered Clouds
7:55 PM 71.6 °F 66.2 °F 83% 29.86 in 10.0 mi NE 10.4 mph - N/A   Mostly Cloudy
8:15 PM 69.8 °F 64.4 °F 83% 29.87 in 10.0 mi NE 10.4 mph - N/A   Partly Cloudy
8:35 PM 68.0 °F 64.4 °F 88% 29.88 in 10.0 mi NE 8.1 mph - N/A   Scattered Clouds
8:55 PM 68.0 °F 64.4 °F 88% 29.88 in 10.0 mi ENE 5.8 mph - N/A   Mostly Cloudy
9:15 PM 68.0 °F 64.4 °F 88% 29.88 in 10.0 mi NE 9.2 mph - N/A   Mostly Cloudy
9:35 PM 68.0 °F 64.4 °F 88% 29.89 in 10.0 mi ENE 6.9 mph - N/A   Overcast
9:55 PM 66.2 °F 64.4 °F 94% 29.89 in 10.0 mi NE 6.9 mph - N/A   Scattered Clouds
10:15 PM 64.4 °F 64.4 °F 100% 29.90 in 10.0 mi ENE 5.8 mph - N/A   Clear
10:35 PM 64.4 °F 64.4 °F 100% 29.90 in 10.0 mi ENE 5.8 mph - N/A   Clear
10:55 PM 64.4 °F 62.6 °F 94% 29.90 in 10.0 mi ENE 5.8 mph - N/A   Clear
11:15 PM 62.6 °F 62.6 °F 100% 29.90 in 10.0 mi ENE 4.6 mph - N/A   Clear
11:35 PM 62.6 °F 62.6 °F 100% 29.91 in 10.0 mi ENE 3.5 mph - N/A   Clear
11:55 PM 62.6 °F 62.6 °F 100% 29.91 in 10.0 mi NE 4.6 mph - N/A   Clear